Wind_Speed
21 29 37 44 33 49 56 49 44 36 32 34 32 31 28 27 25 23 21 19 16 13 13 12 9 8 9 6 7 6 5 5
23 25 44 46 44 32 43 44 41 40 34 35 33 31 29 28 28 25 22 19 15 14 12 9 7 7 8 6 6 5 3 3
11 9 8 25 43 39 38 56 39 43 35 37 35 35 33 32 29 26 23 20 15 8 7 5 3 5 5 6 6 5 4 2
12 8 2 7 15 50 65 50 46 40 41 40 37 37 35 33 30 28 25 18 14 10 9 4 3 3 4 5 5 4 5 3
10 9 2 11 40 49 54 57 50 44 41 39 38 39 37 34 31 26 22 19 14 12 6 5 3 3 4 5 4 3 3 3
10 10 5 3 10 44 43 43 43 40 40 39 40 38 36 32 28 24 21 16 13 10 8 4 2 3 5 5 3 2 2 1
9 10 11 8 6 16 38 33 45 46 42 41 38 37 33 29 26 23 18 15 13 12 7 4 3 3 4 4 3 3 2 1
12 12 13 7 9 14 17 13 44 50 48 39 38 34 32 28 25 21 19 20 17 12 7 5 5 4 4 4 4 4 3 2
8 14 14 16 10 12 17 18 31 32 29 45 39 34 32 25 26 24 22 20 17 12 9 7 5 5 4 5 5 5 5 5
11 15 13 19 13 15 19 21 31 37 33 34 38 36 30 28 27 25 26 18 18 13 11 9 7 7 6 7 9 9 9 8
18 20 18 17 18 23 17 23 27 41 35 41 42 38 33 33 29 27 29 23 17 16 14 11 10 9 9 11 12 13 13 12
19 19 17 15 18 27 14 30 41 45 29 40 39 38 39 42 31 29 28 21 20 19 15 14 13 11 12 14 15 16 16 16
18 20 16 20 18 32 15 26 37 30 23 41 42 43 42 35 32 30 23 22 20 19 19 17 14 14 17 17 18 20 21 22
13 19 20 22 19 20 16 20 19 23 30 39 23 34 38 37 32 25 24 25 22 22 21 17 18 18 20 22 24 23 24 25
22 21 22 23 23 23 23 22 22 24 27 30 31 38 40 36 32 27 28 27 25 23 22 21 21 22 22 26 29 27 26 27
11 15 20 23 24 24 23 24 24 24 24 28 35 36 37 35 34 31 28 30 26 23 23 22 23 23 27 27 32 31 26 31
5 8 12 14 17 18 16 15 18 20 21 23 27 30 31 30 31 29 31 28 26 25 24 23 23 27 27 28 28 31 33 40
8 8 8 9 11 13 13 15 16 17 19 19 21 24 24 26 28 31 28 27 24 23 26 26 24 25 28 30 29 31 33 43
9 9 7 7 7 8 9 10 11 13 15 15 18 19 20 20 23 25 25 25 24 26 28 27 27 26 28 28 27 28 31 36
10 11 10 10 10 9 9 12 11 13 15 17 19 19 19 21 23 24 25 26 26 30 29 27 26 26 28 29 31 31 36 35
Wind_Direction
251 229 217 206 202 200 197 195 192 189 192 186 183 179 176 176 177 175 177 179 181 165 150 139 138 134 139 149 126 144 165 153
261 243 228 231 224 219 214 205 185 205 190 183 182 177 177 176 176 176 177 177 183 173 149 148 146 126 122 155 154 164 166 138
263 192 260 216 249 223 201 196 185 180 184 183 179 177 177 176 176 177 177 180 187 185 142 158 157 124 143 163 167 170 168 170
288 228 308 316 205 200 201 205 175 179 187 180 179 179 178 177 178 178 180 183 175 175 188 156 182 124 152 172 179 175 184 163
266 253 238 52 137 158 171 182 178 172 182 179 179 180 179 181 181 180 183 177 175 194 179 198 197 145 157 189 194 195 179 140
245 235 187 204 139 186 178 168 159 172 180 181 182 182 183 180 182 182 179 173 191 200 195 194 195 168 161 206 203 213 170 170
213 199 179 182 180 171 181 171 171 177 178 179 183 183 184 182 179 176 179 188 205 208 194 199 199 189 200 213 225 229 234 276
182 185 184 185 149 150 165 174 189 177 182 177 183 185 183 183 183 178 183 205 212 212 203 217 224 211 223 228 234 254 283 305
216 195 182 188 176 193 190 182 187 191 194 193 179 194 197 184 191 185 193 212 215 215 216 226 249 259 250 255 260 272 283 286
188 188 200 210 190 207 207 197 200 196 189 193 191 192 188 190 189 185 204 217 222 225 230 236 262 261 270 276 271 272 273 273
186 178 174 178 189 178 188 200 198 184 196 185 189 189 188 195 189 201 215 223 225 235 237 235 251 270 272 275 274 274 279 281
206 195 188 202 204 191 185 201 191 191 198 190 196 193 196 199 201 207 216 220 230 235 243 245 250 260 269 268 271 275 282 284
181 191 191 201 228 198 209 229 195 199 198 187 200 209 211 200 209 213 219 229 237 239 243 247 256 264 269 275 277 277 280 283
165 190 188 179 204 196 196 197 212 204 212 200 224 203 199 207 212 217 224 234 241 244 249 254 262 268 273 276 276 280 285 290
117 120 138 160 175 188 189 208 200 208 203 210 194 185 199 207 214 220 230 241 246 250 256 263 269 270 275 281 288 287 304 286
117 132 135 139 145 148 157 168 172 169 180 187 189 189 195 203 212 225 239 243 246 251 256 264 268 277 272 280 281 278 296 316
139 137 137 138 143 148 148 157 161 167 178 185 190 196 203 207 218 233 241 246 246 250 256 262 269 268 276 275 289 294 295 282
170 162 156 156 154 157 162 168 173 180 191 198 204 213 221 227 233 237 242 247 253 255 258 258 268 269 269 274 285 290 291 287
210 196 184 180 185 180 182 186 193 198 205 212 220 226 232 236 242 247 248 246 253 255 257 259 268 272 276 282 281 295 308 290
237 223 217 210 204 199 202 211 216 215 218 220 222 227 235 242 247 248 254 264 256 252 257 262 271 273 275 276 283 293 280 286
Height
3086 3086 3081 3076 3087 3090 3098 3103 3115 3123 3129 3134 3137 3138 3140 3142 3143 3147 3149 3149 3149 3154 3157 3158 3159 3158 3159 3159 3159 3160 3162 3162
3078 3074 3084 3085 3089 3089 3093 3100 3105 3116 3123 3131 3135 3138 3140 3141 3143 3147 3150 3149 3149 3152 3156 3159 3158 3159 3159 3159 3160 3160 3161 3161
3075 3074 3076 3077 3072 3079 3080 3092 3102 3114 3122 3129 3132 3136 3137 3140 3142 3145 3149 3150 3150 3151 3155 3159 3159 3158 3159 3159 3160 3160 3160 3161
3076 3076 3075 3070 3038 3053 3073 3082 3099 3110 3119 3126 3130 3136 3136 3138 3140 3143 3148 3152 3151 3151 3155 3158 3158 3157 3158 3159 3160 3160 3161 3160
3075 3075 3076 3072 3057 3059 3074 3084 3094 3106 3118 3123 3129 3135 3134 3136 3139 3144 3148 3151 3152 3153 3155 3158 3158 3157 3157 3158 3159 3160 3160 3160
3074 3074 3077 3078 3080 3077 3080 3089 3097 3108 3117 3122 3128 3132 3134 3136 3140 3144 3148 3149 3153 3154 3156 3157 3157 3157 3157 3158 3158 3159 3160 3160
3073 3076 3078 3079 3081 3079 3087 3094 3096 3105 3113 3120 3129 3130 3136 3138 3140 3143 3146 3150 3153 3156 3155 3157 3158 3158 3158 3158 3158 3159 3159 3159
3072 3076 3078 3078 3080 3083 3087 3090 3095 3100 3111 3118 3125 3130 3134 3138 3140 3143 3146 3151 3153 3155 3155 3156 3157 3157 3158 3158 3158 3157 3158 3158
3070 3074 3076 3077 3081 3085 3090 3094 3100 3104 3108 3114 3120 3128 3135 3137 3140 3143 3146 3150 3151 3152 3153 3154 3155 3155 3156 3157 3157 3157 3157 3158
3071 3073 3074 3077 3081 3085 3089 3093 3097 3103 3109 3113 3121 3128 3132 3135 3138 3141 3146 3149 3150 3151 3152 3153 3154 3153 3154 3155 3155 3156 3156 3157
3068 3072 3076 3080 3083 3086 3090 3093 3098 3103 3107 3114 3121 3125 3128 3133 3136 3140 3145 3148 3149 3150 3151 3151 3152 3152 3152 3154 3153 3153 3154 3156
3066 3067 3074 3076 3080 3083 3088 3091 3096 3102 3106 3114 3121 3124 3127 3131 3135 3137 3141 3144 3146 3149 3149 3149 3150 3149 3150 3150 3151 3150 3150 3151
3066 3069 3072 3076 3078 3082 3088 3090 3094 3102 3106 3113 3117 3121 3126 3129 3132 3135 3139 3143 3145 3146 3146 3147 3148 3148 3147 3147 3147 3146 3146 3147
3066 3068 3072 3075 3079 3086 3089 3093 3097 3101 3103 3108 3112 3116 3122 3126 3129 3133 3137 3140 3142 3143 3144 3145 3144 3145 3145 3144 3142 3142 3141 3141
3072 3073 3073 3075 3079 3083 3087 3091 3094 3096 3099 3104 3108 3113 3119 3123 3127 3131 3134 3137 3139 3141 3141 3141 3142 3140 3140 3139 3136 3136 3135 3135
3077 3078 3078 3078 3081 3084 3087 3091 3093 3095 3099 3104 3109 3112 3117 3121 3125 3128 3131 3134 3135 3136 3136 3136 3137 3136 3135 3133 3130 3128 3127 3126
3077 3079 3080 3082 3084 3087 3089 3093 3094 3097 3102 3106 3110 3114 3118 3120 3123 3125 3128 3129 3131 3130 3130 3130 3131 3130 3128 3127 3124 3121 3119 3118
3078 3081 3082 3084 3086 3087 3092 3094 3096 3098 3102 3106 3110 3114 3116 3117 3119 3123 3124 3125 3125 3125 3125 3124 3124 3123 3123 3121 3118 3117 3113 3110
3079 3080 3081 3082 3085 3088 3091 3093 3096 3098 3101 3105 3107 3110 3112 3115 3116 3117 3118 3119 3119 3119 3119 3118 3118 3116 3116 3115 3112 3111 3108 3105
3079 3080 3082 3083 3086 3088 3091 3093 3095 3098 3100 3103 3105 3108 3110 3112 3113 3113 3112 3111 3111 3111 3111 3111 3111 3109 3108 3107 3105 3102 3099 3098